Flag for Switzerland Weather past 2 weeks in Kriens, Lucerne, Switzerland

Now
63 °F

Mild.


Feels Like: 63 °F
Forecast: 57 / 65 °F
Wind: 5 mph from Northeast

Location: Giswil

Current Time: Jul 28, 2014 at 8:11:41 PM

Latest Report: Jul 28, 2014 at 7:00 PM


Visibility: N/A

Pressure: 29.87 "Hg

Humidity: 94%

Dew point: 61 °F

Location of KriensLocation

Historic Weather in Kriens — Graph

°F

Kriens temperature yesterday

Maximum temperature yesterday: 70 °F (at 7:00 PM)
Minimum temperature yesterday: 59 °F (at 4:00 AM)
Average temperature yesterday: 63 °F

Past Weeks' High & Low Weather Summary

 TemperatureHumidityPressure
High87 °F (Jul 18, 4:00 PM)100% (Jul 14, 5:00 AM)30.24 "Hg (Jul 14, 5:00 AM)
Low51 °F (Jul 16, 6:00 AM)31% (Jul 18, 4:00 PM)29.75 "Hg (Jul 28, 4:00 PM)
Average65 °F81%30.00 "Hg
* Reported Jul 13 6:00 PM — Jul 28 6:00 PM, Kriens, Weather by CustomWeather, © 2014

Note: Actual official high and low records may vary slightly from our data, if they occured in-between our weather recording intervals... More about our weather records

Advertising

Kriens weather history for previous 24 hours

 ConditionsComfort  
Time TempWeatherWind HumidityBarometerVisibility
6:00 PM
Jul 28
65 °FMild.13 mph78%29.83 "HgN/A
5:00 PM71 °FMild.3 mph88%29.77 "HgN/A
4:00 PM77 °FMild.2 mph58%29.75 "HgN/A
3:00 PM77 °FWarm.5 mph56%29.78 "HgN/A
2:00 PM75 °FMild.5 mph60%29.80 "HgN/A
1:00 PM73 °FMild.3 mph60%29.84 "HgN/A
12:00 PM72 °FMild.1 mph63%29.87 "HgN/A
11:00 AM68 °FMild.1 mph70%29.89 "HgN/A
10:00 AM66 °FMild.1 mph77%29.91 "HgN/A
9:00 AM63 °FMild.2 mph83%29.93 "HgN/A
8:00 AM61 °FCool.No wind90%29.95 "HgN/A
7:00 AM53 °FCool.3 mph99%29.99 "HgN/A
6:00 AM52 °FCool.3 mph100%30.00 "HgN/A
5:00 AM54 °FCool.2 mph99%29.99 "HgN/A
4:00 AM55 °FCool.1 mph99%30.01 "HgN/A
3:00 AM55 °FCool.No wind99%30.02 "HgN/A
2:00 AM56 °FCool.1 mph98%30.04 "HgN/A
1:00 AM56 °FCool.2 mph98%30.05 "HgN/A
12:00 AM58 °FCool.2 mph98%30.05 "HgN/A
11:00 PM
Jul 27
62 °FCool.No wind97%30.05 "HgN/A
10:00 PM64 °FMild.1 mph94%30.04 "HgN/A
9:00 PM65 °FMild.2 mph82%30.03 "HgN/A
8:00 PM68 °FMild.No wind84%30.02 "HgN/A
Weather by CustomWeather, © 2014

See weather overviewHow to use our weather pages